Time,TemperatureF,DewpointF,PressureIn,WindDirection,WindDirectionDegrees,WindSpeedMPH,WindSpeedGustMPH,Humidity,HourlyPrecipIn,Conditions,Clouds,dailyrainin,SoftwareType,DateUTC
2013-01-27 00:00:00,19.9,9.0,30.37,NNW,338,2.0,7.0,62,0.00,,---,0.03,VWS V14.01,2013-01-27 05:00:00,
2013-01-27 00:02:00,19.9,9.0,30.38,NW,318,2.0,4.0,62,0.00,,---,0.00,VWS V14.01,2013-01-27 05:02:00,
2013-01-27 00:05:00,19.8,8.9,30.38,NW,318,3.0,7.0,62,0.00,,---,0.00,VWS V14.01,2013-01-27 05:05:00,
2013-01-27 00:07:00,19.8,8.9,30.38,NNW,346,3.0,5.0,62,0.00,,---,0.00,VWS V14.01,2013-01-27 05:07:00,
2013-01-27 00:10:00,19.9,9.0,30.38,West,273,2.0,6.0,62,0.00,,---,0.00,VWS V14.01,2013-01-27 05:10:00,
2013-01-27 00:12:00,19.8,8.9,30.38,NW,318,4.0,9.0,62,0.00,,---,0.00,VWS V14.01,2013-01-27 05:12:00,
2013-01-27 00:15:00,19.8,8.9,30.38,NW,313,5.0,9.0,62,0.00,,---,0.00,VWS V14.01,2013-01-27 05:15:00,
2013-01-27 00:17:00,19.8,8.9,30.38,NW,312,2.0,5.0,62,0.00,,---,0.00,VWS V14.01,2013-01-27 05:17:00,
2013-01-27 00:20:00,19.7,8.8,30.38,NW,311,1.0,5.0,62,0.00,,---,0.00,VWS V14.01,2013-01-27 05:20:00,
2013-01-27 00:22:00,19.5,8.6,30.38,NNW,327,4.0,6.0,62,0.00,,---,0.00,VWS V14.01,2013-01-27 05:22:00,
2013-01-27 00:25:00,19.5,9.0,30.38,NW,323,3.0,6.0,63,0.00,,---,0.00,VWS V14.01,2013-01-27 05:25:00,
2013-01-27 00:27:00,19.4,8.9,30.38,NNW,331,2.0,6.0,63,0.00,,---,0.00,VWS V14.01,2013-01-27 05:27:00,
2013-01-27 00:30:00,19.3,8.8,30.38,NW,313,1.0,6.0,63,0.00,,---,0.00,VWS V14.01,2013-01-27 05:30:00,
2013-01-27 00:32:00,19.3,8.8,30.39,NW,313,0.0,3.0,63,0.00,,---,0.00,VWS V14.01,2013-01-27 05:32:00,
2013-01-27 00:35:00,19.2,9.0,30.39,NW,309,2.0,6.0,64,0.00,,---,0.00,VWS V14.01,2013-01-27 05:35:00,
2013-01-27 00:37:00,19.1,8.9,30.39,NW,319,1.0,5.0,64,0.00,,---,0.00,VWS V14.01,2013-01-27 05:37:00,
2013-01-27 00:40:00,19.0,8.9,30.39,NW,319,2.0,5.0,64,0.00,,---,0.00,VWS V14.01,2013-01-27 05:40:00,
2013-01-27 00:42:00,19.0,8.8,30.39,NW,323,2.0,5.0,64,0.00,,---,0.00,VWS V14.01,2013-01-27 05:42:00,
2013-01-27 00:45:00,19.0,8.9,30.39,NW,320,0.0,5.0,64,0.00,,---,0.00,VWS V14.01,2013-01-27 05:45:00,
2013-01-27 00:47:00,19.0,8.8,30.39,NW,304,2.0,5.0,64,0.00,,---,0.00,VWS V14.01,2013-01-27 05:47:00,
2013-01-27 00:50:00,19.0,8.9,30.39,NW,322,1.0,5.0,64,0.00,,---,0.00,VWS V14.01,2013-01-27 05:50:00,
2013-01-27 00:52:00,18.8,8.6,30.39,NW,322,1.0,3.0,64,0.00,,---,0.00,VWS V14.01,2013-01-27 05:52:00,
2013-01-27 00:55:00,18.7,8.6,30.39,NW,306,3.0,5.0,64,0.00,,---,0.00,VWS V14.01,2013-01-27 05:55:00,
2013-01-27 00:57:00,18.7,8.6,30.39,NW,311,2.0,4.0,64,0.00,,---,0.00,VWS V14.01,2013-01-27 05:57:00,
2013-01-27 01:00:00,18.6,8.8,30.39,NW,311,2.0,4.0,65,0.00,,---,0.00,VWS V14.01,2013-01-27 06:00:00,
2013-01-27 01:02:00,18.6,8.8,30.40,NW,309,1.0,7.0,65,0.00,,---,0.00,VWS V14.01,2013-01-27 06:02:00,
2013-01-27 01:05:00,18.6,8.8,30.40,NW,309,2.0,7.0,65,0.00,,---,0.00,VWS V14.01,2013-01-27 06:05:00,
2013-01-27 01:07:00,18.5,8.7,30.40,NW,310,4.0,5.0,65,0.00,,---,0.00,VWS V14.01,2013-01-27 06:07:00,
2013-01-27 01:10:00,18.5,8.7,30.40,NW,319,3.0,5.0,65,0.00,,---,0.00,VWS V14.01,2013-01-27 06:10:00,
2013-01-27 01:12:00,18.5,8.7,30.40,NW,305,0.0,5.0,65,0.00,,---,0.00,VWS V14.01,2013-01-27 06:12:00,
2013-01-27 01:15:00,18.4,8.6,30.40,NW,305,2.0,5.0,65,0.00,,---,0.00,VWS V14.01,2013-01-27 06:15:00,
2013-01-27 01:17:00,18.3,8.9,30.40,NW,305,2.0,4.0,66,0.00,,---,0.00,VWS V14.01,2013-01-27 06:17:00,
2013-01-27 01:20:00,18.2,8.8,30.40,NW,311,3.0,5.0,66,0.00,,---,0.00,VWS V14.01,2013-01-27 06:20:00,
2013-01-27 01:22:00,18.2,8.8,30.40,NW,311,2.0,4.0,66,0.00,,---,0.00,VWS V14.01,2013-01-27 06:22:00,
2013-01-27 01:25:00,18.1,8.7,30.40,NW,311,1.0,4.0,66,0.00,,---,0.00,VWS V14.01,2013-01-27 06:25:00,
2013-01-27 01:27:00,17.9,8.8,30.40,NW,311,1.0,4.0,67,0.00,,---,0.00,VWS V14.01,2013-01-27 06:27:00,
2013-01-27 01:30:00,17.7,8.6,30.40,NW,311,1.0,4.0,67,0.00,,---,0.00,VWS V14.01,2013-01-27 06:30:00,
2013-01-27 01:32:00,17.6,8.9,30.41,NW,311,2.0,3.0,68,0.00,,---,0.00,VWS V14.01,2013-01-27 06:32:00,
2013-01-27 01:35:00,17.5,8.8,30.41,NW,311,0.0,3.0,68,0.00,,---,0.00,VWS V14.01,2013-01-27 06:35:00,
2013-01-27 01:37:00,17.3,8.9,30.41,NW,311,1.0,1.0,69,0.00,,---,0.00,VWS V14.01,2013-01-27 06:37:00,
2013-01-27 01:40:00,17.1,8.7,30.41,NW,311,2.0,2.0,69,0.00,,---,0.00,VWS V14.01,2013-01-27 06:40:00,
2013-01-27 01:42:00,17.0,8.9,30.41,NW,311,0.0,2.0,70,0.00,,---,0.00,VWS V14.01,2013-01-27 06:42:00,
2013-01-27 01:45:00,16.8,8.7,30.41,NW,311,0.0,2.0,70,0.00,,---,0.00,VWS V14.01,2013-01-27 06:45:00,
2013-01-27 01:47:00,16.7,8.6,30.42,NW,311,0.0,0.0,70,0.00,,---,0.00,VWS V14.01,2013-01-27 06:47:00,
2013-01-27 01:50:00,16.4,8.7,30.42,NW,311,0.0,1.0,71,0.00,,---,0.00,VWS V14.01,2013-01-27 06:50:00,
2013-01-27 01:52:00,16.2,8.5,30.42,NW,311,0.0,0.0,71,0.00,,---,0.00,VWS V14.01,2013-01-27 06:52:00,
2013-01-27 01:55:00,16.1,8.7,30.42,NW,311,0.0,1.0,72,0.00,,---,0.00,VWS V14.01,2013-01-27 06:55:00,
2013-01-27 01:57:00,15.8,8.4,30.42,NW,311,1.0,1.0,72,0.00,,---,0.00,VWS V14.01,2013-01-27 06:57:00,
2013-01-27 02:00:00,15.6,8.2,30.42,NW,311,0.0,1.0,72,0.00,,---,0.00,VWS V14.01,2013-01-27 07:00:00,
2013-01-27 02:02:00,15.5,8.4,30.42,NW,311,2.0,2.0,73,0.00,,---,0.00,VWS V14.01,2013-01-27 07:02:00,
2013-01-27 02:05:00,15.4,8.3,30.42,NW,311,0.0,2.0,73,0.00,,---,0.00,VWS V14.01,2013-01-27 07:05:00,
2013-01-27 02:07:00,15.3,8.2,30.43,NW,311,0.0,2.0,73,0.00,,---,0.00,VWS V14.01,2013-01-27 07:07:00,
2013-01-27 02:10:00,15.1,8.0,30.42,NW,311,0.0,2.0,73,0.00,,---,0.00,VWS V14.01,2013-01-27 07:10:00,
2013-01-27 02:13:00,15.1,8.3,30.43,NW,311,0.0,3.0,74,0.00,,---,0.00,VWS V14.01,2013-01-27 07:13:00,
2013-01-27 02:15:00,15.1,8.3,30.43,NW,311,0.0,3.0,74,0.00,,---,0.00,VWS V14.01,2013-01-27 07:15:00,
2013-01-27 02:18:00,15.2,8.4,30.43,NW,311,0.0,3.0,74,0.00,,---,0.00,VWS V14.01,2013-01-27 07:18:00,
2013-01-27 02:20:00,15.3,8.5,30.43,NW,311,0.0,3.0,74,0.00,,---,0.00,VWS V14.01,2013-01-27 07:20:00,
2013-01-27 02:23:00,15.3,8.5,30.43,NW,311,0.0,2.0,74,0.00,,---,0.00,VWS V14.01,2013-01-27 07:23:00,
2013-01-27 02:25:00,15.2,8.4,30.43,NW,311,0.0,2.0,74,0.00,,---,0.00,VWS V14.01,2013-01-27 07:25:00,
2013-01-27 02:28:00,15.0,8.2,30.43,NW,311,0.0,0.0,74,0.00,,---,0.00,VWS V14.01,2013-01-27 07:28:00,
2013-01-27 02:30:00,14.8,8.0,30.43,NW,311,0.0,0.0,74,0.00,,---,0.00,VWS V14.01,2013-01-27 07:30:00,
2013-01-27 02:33:00,14.7,8.2,30.43,NW,311,0.0,0.0,75,0.00,,---,0.00,VWS V14.01,2013-01-27 07:33:00,
2013-01-27 02:35:00,14.6,8.1,30.43,NW,311,0.0,1.0,75,0.00,,---,0.00,VWS V14.01,2013-01-27 07:35:00,
2013-01-27 02:38:00,14.4,7.9,30.44,NW,311,0.0,2.0,75,0.00,,---,0.00,VWS V14.01,2013-01-27 07:38:00,
2013-01-27 02:40:00,14.4,8.2,30.43,NW,311,2.0,2.0,76,0.00,,---,0.00,VWS V14.01,2013-01-27 07:40:00,
2013-01-27 02:43:00,14.3,7.8,30.43,NW,311,1.0,2.0,75,0.00,,---,0.00,VWS V14.01,2013-01-27 07:43:00,
2013-01-27 02:45:00,14.2,8.0,30.43,NW,311,1.0,3.0,76,0.00,,---,0.00,VWS V14.01,2013-01-27 07:45:00,
2013-01-27 02:48:00,14.1,7.9,30.43,NW,311,0.0,2.0,76,0.00,,---,0.00,VWS V14.01,2013-01-27 07:48:00,
2013-01-27 02:50:00,14.1,7.9,30.43,NW,311,0.0,2.0,76,0.00,,---,0.00,VWS V14.01,2013-01-27 07:50:00,
2013-01-27 02:53:00,13.9,7.8,30.43,NW,311,0.0,1.0,76,0.00,,---,0.00,VWS V14.01,2013-01-27 07:53:00,
2013-01-27 02:55:00,13.9,7.8,30.43,NW,311,0.0,2.0,76,0.00,,---,0.00,VWS V14.01,2013-01-27 07:55:00,
2013-01-27 02:58:00,13.7,7.6,30.43,NW,311,1.0,2.0,76,0.00,,---,0.00,VWS V14.01,2013-01-27 07:58:00,
2013-01-27 03:00:00,13.7,7.6,30.43,NW,311,0.0,2.0,76,0.00,,---,0.00,VWS V14.01,2013-01-27 08:00:00,
2013-01-27 03:03:00,13.7,7.6,30.43,NW,311,0.0,2.0,76,0.00,,---,0.00,VWS V14.01,2013-01-27 08:03:00,
2013-01-27 03:05:00,13.6,7.4,30.43,NW,311,0.0,4.0,76,0.00,,---,0.00,VWS V14.01,2013-01-27 08:05:00,
2013-01-27 03:08:00,13.5,7.4,30.43,NW,311,1.0,3.0,76,0.00,,---,0.00,VWS V14.01,2013-01-27 08:08:00,
2013-01-27 03:10:00,13.5,7.7,30.43,NW,311,0.0,3.0,77,0.00,,---,0.00,VWS V14.01,2013-01-27 08:10:00,
2013-01-27 03:13:00,13.4,7.3,30.43,NW,311,0.0,2.0,76,0.00,,---,0.00,VWS V14.01,2013-01-27 08:13:00,
2013-01-27 03:15:00,13.5,7.7,30.43,NW,311,0.0,3.0,77,0.00,,---,0.00,VWS V14.01,2013-01-27 08:15:00,
2013-01-27 03:18:00,13.6,7.7,30.43,NW,309,2.0,5.0,77,0.00,,---,0.00,VWS V14.01,2013-01-27 08:18:00,
2013-01-27 03:20:00,13.7,7.8,30.43,NW,309,2.0,5.0,77,0.00,,---,0.00,VWS V14.01,2013-01-27 08:20:00,
2013-01-27 03:23:00,13.9,7.8,30.43,NW,308,4.0,5.0,76,0.00,,---,0.00,VWS V14.01,2013-01-27 08:23:00,
2013-01-27 03:25:00,14.0,7.8,30.43,WNW,299,0.0,5.0,76,0.00,,---,0.00,VWS V14.01,2013-01-27 08:25:00,
2013-01-27 03:28:00,14.0,7.8,30.43,WNW,298,3.0,6.0,76,0.00,,---,0.00,VWS V14.01,2013-01-27 08:28:00,
2013-01-27 03:30:00,14.0,7.8,30.43,WNW,296,3.0,6.0,76,0.00,,---,0.00,VWS V14.01,2013-01-27 08:30:00,
2013-01-27 03:33:00,14.1,7.7,30.43,WNW,287,3.0,5.0,75,0.00,,---,0.00,VWS V14.01,2013-01-27 08:33:00,
2013-01-27 03:35:00,14.1,7.7,30.43,WNW,287,3.0,7.0,75,0.00,,---,0.00,VWS V14.01,2013-01-27 08:35:00,
2013-01-27 03:38:00,14.1,7.7,30.43,WNW,289,2.0,5.0,75,0.00,,---,0.00,VWS V14.01,2013-01-27 08:38:00,
2013-01-27 03:40:00,14.1,7.7,30.43,WNW,294,2.0,5.0,75,0.00,,---,0.00,VWS V14.01,2013-01-27 08:40:00,
2013-01-27 03:43:00,14.0,7.6,30.43,WNW,291,0.0,4.0,75,0.00,,---,0.00,VWS V14.01,2013-01-27 08:43:00,
2013-01-27 03:45:00,14.0,7.6,30.43,West,267,1.0,6.0,75,0.00,,---,0.00,VWS V14.01,2013-01-27 08:45:00,
2013-01-27 03:48:00,13.9,7.8,30.44,WNW,282,2.0,5.0,76,0.00,,---,0.00,VWS V14.01,2013-01-27 08:48:00,
2013-01-27 03:50:00,13.9,7.8,30.43,WNW,288,4.0,6.0,76,0.00,,---,0.00,VWS V14.01,2013-01-27 08:50:00,
2013-01-27 03:52:00,13.9,7.8,30.44,WNW,294,1.0,6.0,76,0.00,,---,0.00,VWS V14.01,2013-01-27 08:52:00,
2013-01-27 03:55:00,13.9,7.8,30.44,WNW,288,3.0,6.0,76,0.00,,---,0.00,VWS V14.01,2013-01-27 08:55:00,
2013-01-27 03:57:00,13.9,7.8,30.43,WNW,288,3.0,7.0,76,0.00,,---,0.00,VWS V14.01,2013-01-27 08:57:00,
2013-01-27 04:00:00,13.9,7.8,30.43,West,281,4.0,7.0,76,0.00,,---,0.00,VWS V14.01,2013-01-27 09:00:00,
2013-01-27 04:02:00,13.9,7.8,30.43,WNW,292,1.0,6.0,76,0.00,,---,0.00,VWS V14.01,2013-01-27 09:02:00,
2013-01-27 04:05:00,13.9,7.8,30.44,West,272,2.0,6.0,76,0.00,,---,0.00,VWS V14.01,2013-01-27 09:05:00,
2013-01-27 04:07:00,13.8,7.7,30.44,West,278,3.0,6.0,76,0.00,,---,0.00,VWS V14.01,2013-01-27 09:07:00,
2013-01-27 04:10:00,13.8,7.7,30.44,WNW,292,2.0,6.0,76,0.00,,---,0.00,VWS V14.01,2013-01-27 09:10:00,
2013-01-27 04:12:00,13.8,7.7,30.44,WNW,283,3.0,5.0,76,0.00,,---,0.00,VWS V14.01,2013-01-27 09:12:00,
2013-01-27 04:15:00,13.8,7.7,30.43,West,280,2.0,5.0,76,0.00,,---,0.00,VWS V14.01,2013-01-27 09:15:00,
2013-01-27 04:17:00,13.8,7.7,30.44,West,280,0.0,4.0,76,0.00,,---,0.00,VWS V14.01,2013-01-27 09:17:00,
2013-01-27 04:20:00,13.8,7.7,30.43,West,281,0.0,4.0,76,0.00,,---,0.00,VWS V14.01,2013-01-27 09:20:00,
2013-01-27 04:22:00,13.7,7.6,30.43,WNW,286,2.0,4.0,76,0.00,,---,0.00,VWS V14.01,2013-01-27 09:22:00,
2013-01-27 04:25:00,13.7,7.6,30.43,WNW,288,0.0,4.0,76,0.00,,---,0.00,VWS V14.01,2013-01-27 09:25:00,
2013-01-27 04:27:00,13.8,7.9,30.43,West,269,4.0,4.0,77,0.00,,---,0.00,VWS V14.01,2013-01-27 09:27:00,
2013-01-27 04:30:00,13.9,8.0,30.43,WNW,283,0.0,5.0,77,0.00,,---,0.00,VWS V14.01,2013-01-27 09:30:00,
2013-01-27 04:32:00,14.0,8.1,30.43,WNW,290,2.0,5.0,77,0.00,,---,0.00,VWS V14.01,2013-01-27 09:32:00,
2013-01-27 04:35:00,14.1,7.9,30.43,WNW,290,1.0,5.0,76,0.00,,---,0.00,VWS V14.01,2013-01-27 09:35:00,
2013-01-27 04:37:00,14.2,8.0,30.43,WNW,300,2.0,6.0,76,0.00,,---,0.00,VWS V14.01,2013-01-27 09:37:00,
2013-01-27 04:40:00,14.2,8.0,30.43,WNW,298,4.0,6.0,76,0.00,,---,0.00,VWS V14.01,2013-01-27 09:40:00,
2013-01-27 04:42:00,14.3,8.1,30.43,West,279,3.0,5.0,76,0.00,,---,0.00,VWS V14.01,2013-01-27 09:42:00,
2013-01-27 04:45:00,14.3,8.1,30.43,WNW,291,2.0,5.0,76,0.00,,---,0.00,VWS V14.01,2013-01-27 09:45:00,
2013-01-27 04:47:00,14.4,8.2,30.43,West,272,1.0,6.0,76,0.00,,---,0.00,VWS V14.01,2013-01-27 09:47:00,
2013-01-27 04:50:00,14.4,8.2,30.43,WNW,284,2.0,6.0,76,0.00,,---,0.00,VWS V14.01,2013-01-27 09:50:00,
2013-01-27 04:52:00,14.5,8.3,30.43,West,262,2.0,6.0,76,0.00,,---,0.00,VWS V14.01,2013-01-27 09:52:00,
2013-01-27 04:55:00,14.6,8.4,30.43,WNW,292,4.0,7.0,76,0.00,,---,0.00,VWS V14.01,2013-01-27 09:55:00,
2013-01-27 04:57:00,14.7,8.5,30.43,West,278,2.0,5.0,76,0.00,,---,0.00,VWS V14.01,2013-01-27 09:57:00,
2013-01-27 05:00:00,14.7,8.5,30.43,WNW,282,2.0,5.0,76,0.00,,---,0.00,VWS V14.01,2013-01-27 10:00:00,
2013-01-27 05:02:00,14.7,8.5,30.43,West,260,3.0,8.0,76,0.00,,---,0.00,VWS V14.01,2013-01-27 10:02:00,
2013-01-27 05:05:00,14.7,8.5,30.43,West,269,2.0,8.0,76,0.00,,---,0.00,VWS V14.01,2013-01-27 10:05:00,
2013-01-27 05:07:00,14.8,8.6,30.44,West,277,3.0,5.0,76,0.00,,---,0.00,VWS V14.01,2013-01-27 10:07:00,
2013-01-27 05:10:00,14.8,8.6,30.44,WNW,286,2.0,5.0,76,0.00,,---,0.00,VWS V14.01,2013-01-27 10:10:00,
2013-01-27 05:12:00,14.8,8.6,30.44,West,273,3.0,5.0,76,0.00,,---,0.00,VWS V14.01,2013-01-27 10:12:00,
2013-01-27 05:15:00,14.8,8.3,30.44,West,273,2.0,5.0,75,0.00,,---,0.00,VWS V14.01,2013-01-27 10:15:00,
2013-01-27 05:17:00,14.8,8.3,30.44,WNW,284,3.0,4.0,75,0.00,,---,0.00,VWS V14.01,2013-01-27 10:17:00,
2013-01-27 05:20:00,14.8,8.3,30.44,WSW,237,1.0,5.0,75,0.00,,---,0.00,VWS V14.01,2013-01-27 10:20:00,
2013-01-27 05:22:00,14.8,8.6,30.45,WNW,284,1.0,6.0,76,0.00,,---,0.00,VWS V14.01,2013-01-27 10:22:00,
2013-01-27 05:25:00,14.7,8.5,30.45,WNW,284,1.0,6.0,76,0.00,,---,0.00,VWS V14.01,2013-01-27 10:25:00,
2013-01-27 05:27:00,14.7,8.5,30.45,West,279,3.0,4.0,76,0.00,,---,0.00,VWS V14.01,2013-01-27 10:27:00,
2013-01-27 05:30:00,14.6,8.4,30.45,West,279,1.0,4.0,76,0.00,,---,0.00,VWS V14.01,2013-01-27 10:30:00,
2013-01-27 05:32:00,14.6,8.4,30.45,West,279,0.0,3.0,76,0.00,,---,0.00,VWS V14.01,2013-01-27 10:32:00,
2013-01-27 05:35:00,14.5,8.3,30.45,West,279,0.0,3.0,76,0.00,,---,0.00,VWS V14.01,2013-01-27 10:35:00,
2013-01-27 05:37:00,14.4,8.2,30.45,West,279,0.0,1.0,76,0.00,,---,0.00,VWS V14.01,2013-01-27 10:37:00,
2013-01-27 05:40:00,14.3,8.1,30.46,West,279,0.0,1.0,76,0.00,,---,0.00,VWS V14.01,2013-01-27 10:40:00,
2013-01-27 05:42:00,14.2,8.0,30.46,West,279,0.0,0.0,76,0.00,,---,0.00,VWS V14.01,2013-01-27 10:42:00,
2013-01-27 05:45:00,14.0,7.8,30.46,West,279,0.0,0.0,76,0.00,,---,0.00,VWS V14.01,2013-01-27 10:45:00,
2013-01-27 05:47:00,13.8,7.9,30.46,West,279,0.0,0.0,77,0.00,,---,0.00,VWS V14.01,2013-01-27 10:47:00,
2013-01-27 05:50:00,13.6,7.7,30.46,West,279,0.0,1.0,77,0.00,,---,0.00,VWS V14.01,2013-01-27 10:50:00,
2013-01-27 05:52:00,13.5,7.7,30.46,West,279,0.0,0.0,77,0.00,,---,0.00,VWS V14.01,2013-01-27 10:52:00,
2013-01-27 05:55:00,13.4,7.6,30.46,West,279,0.0,1.0,77,0.00,,---,0.00,VWS V14.01,2013-01-27 10:55:00,
2013-01-27 05:57:00,13.3,7.4,30.46,West,279,0.0,1.0,77,0.00,,---,0.00,VWS V14.01,2013-01-27 10:57:00,
2013-01-27 06:00:00,13.2,7.4,30.46,West,279,0.0,1.0,77,0.00,,---,0.00,VWS V14.01,2013-01-27 11:00:00,
2013-01-27 06:02:00,13.1,7.3,30.46,West,279,0.0,2.0,77,0.00,,---,0.00,VWS V14.01,2013-01-27 11:02:00,
2013-01-27 06:05:00,13.1,7.5,30.46,West,279,0.0,2.0,78,0.00,,---,0.00,VWS V14.01,2013-01-27 11:05:00,
2013-01-27 06:07:00,13.1,7.5,30.46,West,279,0.0,1.0,78,0.00,,---,0.00,VWS V14.01,2013-01-27 11:07:00,
2013-01-27 06:10:00,13.1,7.5,30.46,West,279,0.0,2.0,78,0.00,,---,0.00,VWS V14.01,2013-01-27 11:10:00,
2013-01-27 06:12:00,13.1,7.5,30.46,West,279,0.0,2.0,78,0.00,,---,0.00,VWS V14.01,2013-01-27 11:12:00,
2013-01-27 06:15:00,13.0,7.4,30.46,West,279,0.0,3.0,78,0.00,,---,0.00,VWS V14.01,2013-01-27 11:15:00,
2013-01-27 06:17:00,13.0,7.4,30.46,West,279,3.0,3.0,78,0.00,,---,0.00,VWS V14.01,2013-01-27 11:17:00,
2013-01-27 06:20:00,13.0,7.4,30.46,West,279,0.0,3.0,78,0.00,,---,0.00,VWS V14.01,2013-01-27 11:20:00,
2013-01-27 06:22:00,13.0,7.4,30.46,West,279,1.0,3.0,78,0.00,,---,0.00,VWS V14.01,2013-01-27 11:22:00,
2013-01-27 06:25:00,13.0,7.4,30.46,West,279,1.0,3.0,78,0.00,,---,0.00,VWS V14.01,2013-01-27 11:25:00,
2013-01-27 06:27:00,12.9,7.3,30.46,West,279,0.0,1.0,78,0.00,,---,0.00,VWS V14.01,2013-01-27 11:27:00,
2013-01-27 06:30:00,13.0,7.4,30.46,West,279,0.0,1.0,78,0.00,,---,0.00,VWS V14.01,2013-01-27 11:30:00,
2013-01-27 06:32:00,12.9,7.3,30.46,West,279,0.0,0.0,78,0.00,,---,0.00,VWS V14.01,2013-01-27 11:32:00,
2013-01-27 06:35:00,12.8,7.2,30.46,West,279,0.0,0.0,78,0.00,,---,0.00,VWS V14.01,2013-01-27 11:35:00,
2013-01-27 06:37:00,12.8,7.2,30.46,West,279,0.0,0.0,78,0.00,,---,0.00,VWS V14.01,2013-01-27 11:37:00,
2013-01-27 06:40:00,11.7,7.0,30.49,West,279,0.0,4.0,81,0.00,,---,0.00,VWS V14.01,2013-01-27 11:40:00,
2013-01-27 06:42:00,12.7,7.4,30.46,West,279,0.0,0.0,79,0.00,,---,0.00,VWS V14.01,2013-01-27 11:42:00,
2013-01-27 06:45:00,12.7,7.4,30.47,West,279,0.0,0.0,79,0.00,,---,0.00,VWS V14.01,2013-01-27 11:45:00,
2013-01-27 06:47:00,12.7,7.4,30.47,West,279,0.0,0.0,79,0.00,,---,0.00,VWS V14.01,2013-01-27 11:47:00,
2013-01-27 06:50:00,12.6,7.3,30.47,West,279,0.0,0.0,79,0.00,,---,0.00,VWS V14.01,2013-01-27 11:50:00,
2013-01-27 06:52:00,12.6,7.3,30.47,West,279,0.0,0.0,79,0.00,,---,0.00,VWS V14.01,2013-01-27 11:52:00,
2013-01-27 06:55:00,12.5,7.2,30.47,West,279,0.0,0.0,79,0.00,,---,0.00,VWS V14.01,2013-01-27 11:55:00,
2013-01-27 06:57:00,12.5,7.2,30.47,West,279,0.0,0.0,79,0.00,,---,0.00,VWS V14.01,2013-01-27 11:57:00,
2013-01-27 07:00:00,12.4,7.1,30.47,West,279,0.0,0.0,79,0.00,,---,0.00,VWS V14.01,2013-01-27 12:00:00,
2013-01-27 07:02:00,12.3,7.0,30.47,West,279,0.0,0.0,79,0.00,,---,0.00,VWS V14.01,2013-01-27 12:02:00,
2013-01-27 07:05:00,12.3,7.0,30.47,West,279,0.0,1.0,79,0.00,,---,0.00,VWS V14.01,2013-01-27 12:05:00,
2013-01-27 07:07:00,12.3,7.0,30.47,West,279,0.0,0.0,79,0.00,,---,0.00,VWS V14.01,2013-01-27 12:07:00,
2013-01-27 07:10:00,12.2,6.9,30.48,West,279,0.0,0.0,79,0.00,,---,0.00,VWS V14.01,2013-01-27 12:10:00,
2013-01-27 07:12:00,12.1,6.8,30.48,West,279,0.0,0.0,79,0.00,,---,0.00,VWS V14.01,2013-01-27 12:12:00,
2013-01-27 07:15:00,12.1,6.8,30.48,West,279,0.0,1.0,79,0.00,,---,0.00,VWS V14.01,2013-01-27 12:15:00,
2013-01-27 07:17:00,12.0,6.8,30.48,West,279,0.0,1.0,79,0.00,,---,0.00,VWS V14.01,2013-01-27 12:17:00,
2013-01-27 07:20:00,12.0,7.0,30.48,West,279,0.0,1.0,80,0.00,,---,0.00,VWS V14.01,2013-01-27 12:20:00,
2013-01-27 07:22:00,11.9,6.9,30.48,West,279,0.0,2.0,80,0.00,,---,0.00,VWS V14.01,2013-01-27 12:22:00,
2013-01-27 07:25:00,11.9,6.9,30.48,West,279,0.0,2.0,80,0.00,,---,0.00,VWS V14.01,2013-01-27 12:25:00,
2013-01-27 07:27:00,11.8,6.8,30.48,West,279,1.0,3.0,80,0.00,,---,0.00,VWS V14.01,2013-01-27 12:27:00,
2013-01-27 07:30:00,11.8,6.8,30.48,West,279,1.0,3.0,80,0.00,,---,0.00,VWS V14.01,2013-01-27 12:30:00,
2013-01-27 07:32:00,11.8,7.1,30.49,West,279,0.0,2.0,81,0.00,,---,0.00,VWS V14.01,2013-01-27 12:32:00,
2013-01-27 07:35:00,11.7,7.0,30.49,West,279,2.0,2.0,81,0.00,,---,0.00,VWS V14.01,2013-01-27 12:35:00,
2013-01-27 07:37:00,11.7,7.0,30.49,West,279,2.0,4.0,81,0.00,,---,0.00,VWS V14.01,2013-01-27 12:37:00,
2013-01-27 07:40:00,11.7,7.0,30.49,West,279,0.0,4.0,81,0.00,,---,0.00,VWS V14.01,2013-01-27 12:40:00,
2013-01-27 07:42:00,11.8,7.1,30.49,West,279,0.0,3.0,81,0.00,,---,0.00,VWS V14.01,2013-01-27 12:42:00,
2013-01-27 07:45:00,11.8,7.1,30.49,NW,309,2.0,4.0,81,0.00,,---,0.00,VWS V14.01,2013-01-27 12:45:00,
2013-01-27 07:47:00,11.9,7.5,30.50,NW,306,1.0,4.0,82,0.00,,---,0.00,VWS V14.01,2013-01-27 12:47:00,
2013-01-27 07:50:00,12.1,7.7,30.50,NW,305,1.0,5.0,82,0.00,,---,0.00,VWS V14.01,2013-01-27 12:50:00,
2013-01-27 07:52:00,12.2,7.8,30.50,NW,305,3.0,3.0,82,0.00,,---,0.00,VWS V14.01,2013-01-27 12:52:00,
2013-01-27 07:55:00,12.5,8.3,30.50,NW,304,3.0,5.0,83,0.00,,---,0.00,VWS V14.01,2013-01-27 12:55:00,
2013-01-27 07:57:00,12.8,8.6,30.50,WNW,289,3.0,7.0,83,0.00,,---,0.00,VWS V14.01,2013-01-27 12:57:00,
2013-01-27 08:00:00,13.6,9.4,30.50,WNW,283,6.0,7.0,83,0.00,,---,0.00,VWS V14.01,2013-01-27 13:00:00,
2013-01-27 08:02:00,14.6,10.4,30.50,WNW,295,4.0,9.0,83,0.00,,---,0.00,VWS V14.01,2013-01-27 13:02:00,
2013-01-27 08:05:00,15.7,10.9,30.50,NW,309,3.0,9.0,81,0.00,,---,0.00,VWS V14.01,2013-01-27 13:05:00,
2013-01-27 08:07:00,16.4,11.0,30.50,WNW,294,6.0,9.0,79,0.00,,---,0.00,VWS V14.01,2013-01-27 13:07:00,
2013-01-27 08:10:00,17.3,11.3,30.50,NW,305,2.0,9.0,77,0.00,,---,0.00,VWS V14.01,2013-01-27 13:10:00,
2013-01-27 08:12:00,17.8,11.2,30.50,WNW,300,5.0,9.0,75,0.00,,---,0.00,VWS V14.01,2013-01-27 13:12:00,
2013-01-27 08:15:00,18.4,11.5,30.50,WNW,292,2.0,9.0,74,0.00,,---,0.00,VWS V14.01,2013-01-27 13:15:00,
2013-01-27 08:17:00,18.8,11.3,30.50,WNW,292,2.0,10.0,72,0.00,,---,0.00,VWS V14.01,2013-01-27 13:17:00,
2013-01-27 08:20:00,19.2,11.4,30.50,NW,315,3.0,10.0,71,0.00,,---,0.00,VWS V14.01,2013-01-27 13:20:00,
2013-01-27 08:22:00,19.5,11.3,30.50,NW,316,10.0,11.0,70,0.00,,---,0.00,VWS V14.01,2013-01-27 13:22:00,
2013-01-27 08:25:00,19.8,11.3,30.50,NW,306,10.0,13.0,69,0.00,,---,0.00,VWS V14.01,2013-01-27 13:25:00,
2013-01-27 08:27:00,20.0,11.5,30.50,WNW,302,7.0,12.0,69,0.00,,---,0.00,VWS V14.01,2013-01-27 13:27:00,
2013-01-27 08:30:00,20.3,11.4,30.50,West,278,3.0,12.0,68,0.00,,---,0.00,VWS V14.01,2013-01-27 13:30:00,
2013-01-27 08:32:00,20.5,11.6,30.50,WNW,285,9.0,12.0,68,0.00,,---,0.00,VWS V14.01,2013-01-27 13:32:00,
2013-01-27 08:35:00,20.7,11.8,30.50,WNW,295,10.0,12.0,68,0.00,,---,0.00,VWS V14.01,2013-01-27 13:35:00,
2013-01-27 08:37:00,20.9,12.0,30.51,NW,313,8.0,10.0,68,0.00,,---,0.00,VWS V14.01,2013-01-27 13:37:00,
2013-01-27 08:40:00,21.1,11.9,30.51,NW,304,5.0,10.0,67,0.00,,---,0.00,VWS V14.01,2013-01-27 13:40:00,
2013-01-27 08:42:00,21.3,12.1,30.51,NW,305,7.0,8.0,67,0.00,,---,0.00,VWS V14.01,2013-01-27 13:42:00,
2013-01-27 08:45:00,21.5,12.3,30.51,WNW,282,3.0,8.0,67,0.00,,---,0.00,VWS V14.01,2013-01-27 13:45:00,
2013-01-27 08:47:00,21.6,12.4,30.50,NW,321,9.0,14.0,67,0.00,,---,0.00,VWS V14.01,2013-01-27 13:47:00,
2013-01-27 08:50:00,21.8,12.5,30.50,NW,306,12.0,14.0,67,0.00,,---,0.00,VWS V14.01,2013-01-27 13:50:00,
2013-01-27 08:52:00,21.9,12.3,30.50,WNW,286,4.0,12.0,66,0.00,,---,0.00,VWS V14.01,2013-01-27 13:52:00,
2013-01-27 08:55:00,22.2,12.6,30.50,WNW,287,7.0,13.0,66,0.00,,---,0.00,VWS V14.01,2013-01-27 13:55:00,
2013-01-27 08:57:00,22.3,12.7,30.50,NW,306,3.0,12.0,66,0.00,,---,0.00,VWS V14.01,2013-01-27 13:57:00,
2013-01-27 09:00:00,22.5,12.9,30.50,WNW,296,9.0,12.0,66,0.00,,---,0.00,VWS V14.01,2013-01-27 14:00:00,
2013-01-27 09:02:00,22.7,13.1,30.50,WNW,298,6.0,14.0,66,0.00,,---,0.00,VWS V14.01,2013-01-27 14:02:00,
2013-01-27 09:05:00,22.9,13.3,30.50,NW,316,11.0,14.0,66,0.00,,---,0.00,VWS V14.01,2013-01-27 14:05:00,
2013-01-27 09:07:00,23.1,13.4,30.50,NW,312,13.0,22.0,66,0.00,,---,0.00,VWS V14.01,2013-01-27 14:07:00,
2013-01-27 09:10:00,23.3,13.6,30.50,WNW,301,6.0,22.0,66,0.00,,---,0.00,VWS V14.01,2013-01-27 14:10:00,
2013-01-27 09:12:00,23.5,13.8,30.50,WNW,300,5.0,9.0,66,0.00,,---,0.00,VWS V14.01,2013-01-27 14:12:00,
2013-01-27 09:15:00,23.7,13.7,30.51,NW,323,5.0,12.0,65,0.00,,---,0.00,VWS V14.01,2013-01-27 14:15:00,
2013-01-27 09:17:00,23.9,13.9,30.51,NW,316,2.0,11.0,65,0.00,,---,0.00,VWS V14.01,2013-01-27 14:17:00,
2013-01-27 09:20:00,24.1,14.1,30.51,NW,316,4.0,12.0,65,0.00,,---,0.00,VWS V14.01,2013-01-27 14:20:00,
2013-01-27 09:22:00,24.2,14.1,30.51,NW,312,7.0,11.0,65,0.00,,---,0.00,VWS V14.01,2013-01-27 14:22:00,
2013-01-27 09:25:00,24.4,14.3,30.51,NNW,344,8.0,11.0,65,0.00,,---,0.00,VWS V14.01,2013-01-27 14:25:00,
2013-01-27 09:27:00,24.4,14.0,30.51,NW,316,8.0,13.0,64,0.00,,---,0.00,VWS V14.01,2013-01-27 14:27:00,
2013-01-27 09:30:00,24.5,14.1,30.51,North,10,3.0,15.0,64,0.00,,---,0.00,VWS V14.01,2013-01-27 14:30:00,
2013-01-27 09:32:00,24.7,14.3,30.51,NNW,338,5.0,11.0,64,0.00,,---,0.00,VWS V14.01,2013-01-27 14:32:00,
2013-01-27 09:35:00,24.8,14.0,30.51,NW,321,11.0,14.0,63,0.00,,---,0.00,VWS V14.01,2013-01-27 14:35:00,
2013-01-27 09:37:00,24.9,14.5,30.51,NW,318,9.0,11.0,64,0.00,,---,0.00,VWS V14.01,2013-01-27 14:37:00,
2013-01-27 09:40:00,25.1,14.3,30.51,NNW,336,6.0,12.0,63,0.00,,---,0.00,VWS V14.01,2013-01-27 14:40:00,
2013-01-27 09:42:00,25.1,14.3,30.51,NNW,334,4.0,9.0,63,0.00,,---,0.00,VWS V14.01,2013-01-27 14:42:00,
2013-01-27 09:45:00,25.2,14.4,30.52,NNW,340,5.0,13.0,63,0.00,,---,0.00,VWS V14.01,2013-01-27 14:45:00,
2013-01-27 09:47:00,25.4,14.9,30.52,NNW,338,2.0,9.0,64,0.00,,---,0.00,VWS V14.01,2013-01-27 14:47:00,
2013-01-27 09:50:00,25.6,14.8,30.52,NW,320,12.0,12.0,63,0.00,,---,0.00,VWS V14.01,2013-01-27 14:50:00,
2013-01-27 09:52:00,25.7,14.5,30.52,WNW,303,6.0,14.0,62,0.00,,---,0.00,VWS V14.01,2013-01-27 14:52:00,
2013-01-27 09:55:00,25.7,14.5,30.52,WNW,296,5.0,14.0,62,0.00,,---,0.00,VWS V14.01,2013-01-27 14:55:00,
2013-01-27 09:57:00,25.8,14.6,30.52,NW,305,8.0,9.0,62,0.00,,---,0.00,VWS V14.01,2013-01-27 14:57:00,
2013-01-27 10:00:00,26.0,14.8,30.53,NW,310,11.0,12.0,62,0.00,,---,0.00,VWS V14.01,2013-01-27 15:00:00,
2013-01-27 10:02:00,26.0,14.4,30.53,NW,318,5.0,11.0,61,0.00,,---,0.00,VWS V14.01,2013-01-27 15:02:00,
2013-01-27 10:05:00,26.1,14.9,30.53,NW,323,5.0,11.0,62,0.00,,---,0.00,VWS V14.01,2013-01-27 15:05:00,
2013-01-27 10:07:00,26.2,14.6,30.53,NW,313,12.0,17.0,61,0.00,,---,0.00,VWS V14.01,2013-01-27 15:07:00,
2013-01-27 10:10:00,26.2,14.6,30.53,NW,313,9.0,17.0,61,0.00,,---,0.00,VWS V14.01,2013-01-27 15:10:00,
2013-01-27 10:12:00,26.2,14.6,30.53,NNW,342,3.0,10.0,61,0.00,,---,0.00,VWS V14.01,2013-01-27 15:12:00,
2013-01-27 10:15:00,26.4,14.8,30.53,NNW,345,6.0,11.0,61,0.00,,---,0.00,VWS V14.01,2013-01-27 15:15:00,
2013-01-27 10:17:00,26.5,14.9,30.53,NW,312,12.0,12.0,61,0.00,,---,0.00,VWS V14.01,2013-01-27 15:17:00,
2013-01-27 10:20:00,26.7,15.1,30.54,North,11,4.0,13.0,61,0.00,,---,0.00,VWS V14.01,2013-01-27 15:20:00,
2013-01-27 10:21:00,26.8,15.2,30.54,North,10,5.0,10.0,61,0.00,,---,0.00,VWS V14.01,2013-01-27 15:21:00,
2013-01-27 10:25:00,27.1,15.4,30.53,WNW,303,9.0,10.0,61,0.00,,---,0.00,VWS V14.01,2013-01-27 15:25:00,
2013-01-27 10:26:00,27.3,15.3,30.53,WNW,289,8.0,11.0,60,0.00,,---,0.00,VWS V14.01,2013-01-27 15:26:00,
2013-01-27 10:30:00,27.3,14.9,30.53,NW,326,11.0,16.0,59,0.00,,---,0.00,VWS V14.01,2013-01-27 15:30:00,
2013-01-27 10:31:00,27.3,15.3,30.53,NNW,341,6.0,12.0,60,0.00,,---,0.00,VWS V14.01,2013-01-27 15:31:00,
2013-01-27 10:35:00,27.4,15.0,30.53,North,1,7.0,12.0,59,0.00,,---,0.00,VWS V14.01,2013-01-27 15:35:00,
2013-01-27 10:36:00,27.4,15.0,30.53,WNW,300,8.0,9.0,59,0.00,,---,0.00,VWS V14.01,2013-01-27 15:36:00,
2013-01-27 10:40:00,27.6,15.2,30.53,WNW,290,7.0,17.0,59,0.00,,---,0.00,VWS V14.01,2013-01-27 15:40:00,
2013-01-27 10:41:00,27.5,15.1,30.53,NW,323,8.0,14.0,59,0.00,,---,0.00,VWS V14.01,2013-01-27 15:41:00,
2013-01-27 10:45:00,29.8,15.2,30.51,North,5,4.0,11.0,54,0.00,,---,0.00,VWS V14.01,2013-01-27 15:45:00,
2013-01-27 10:46:00,27.9,15.4,30.53,WNW,297,10.0,10.0,59,0.00,,---,0.00,VWS V14.01,2013-01-27 15:46:00,
2013-01-27 10:50:00,27.8,15.0,30.53,NNW,329,6.0,14.0,58,0.00,,---,0.00,VWS V14.01,2013-01-27 15:50:00,
2013-01-27 10:51:00,27.8,15.0,30.53,NNW,334,10.0,12.0,58,0.00,,---,0.00,VWS V14.01,2013-01-27 15:51:00,
2013-01-27 10:55:00,27.9,15.4,30.53,WNW,302,5.0,12.0,59,0.00,,---,0.00,VWS V14.01,2013-01-27 15:55:00,
2013-01-27 10:56:00,27.9,15.1,30.53,NNW,335,7.0,10.0,58,0.00,,---,0.00,VWS V14.01,2013-01-27 15:56:00,
2013-01-27 11:00:00,28.1,14.8,30.53,North,349,8.0,10.0,57,0.00,,---,0.00,VWS V14.01,2013-01-27 16:00:00,
2013-01-27 11:01:00,28.3,15.0,30.53,NNW,337,9.0,9.0,57,0.00,,---,0.00,VWS V14.01,2013-01-27 16:01:00,
2013-01-27 11:05:00,28.4,15.1,30.53,North,354,14.0,16.0,57,0.00,,---,0.00,VWS V14.01,2013-01-27 16:05:00,
2013-01-27 11:06:00,28.3,14.6,30.53,NW,311,4.0,20.0,56,0.00,,---,0.00,VWS V14.01,2013-01-27 16:06:00,
2013-01-27 11:10:00,28.4,14.7,30.53,NW,316,10.0,20.0,56,0.00,,---,0.00,VWS V14.01,2013-01-27 16:10:00,
2013-01-27 11:11:00,28.3,14.6,30.53,North,352,9.0,14.0,56,0.00,,---,0.00,VWS V14.01,2013-01-27 16:11:00,
2013-01-27 11:15:00,28.2,14.5,30.53,NW,315,7.0,14.0,56,0.00,,---,0.00,VWS V14.01,2013-01-27 16:15:00,
2013-01-27 11:16:00,28.5,15.2,30.52,NW,304,2.0,11.0,57,0.00,,---,0.00,VWS V14.01,2013-01-27 16:16:00,
2013-01-27 11:20:00,28.9,14.8,30.52,NNW,329,7.0,14.0,55,0.00,,---,0.00,VWS V14.01,2013-01-27 16:20:00,
2013-01-27 11:21:00,29.1,15.4,30.52,NNW,331,4.0,10.0,56,0.00,,---,0.00,VWS V14.01,2013-01-27 16:21:00,
2013-01-27 11:25:00,29.3,15.1,30.52,NW,305,6.0,10.0,55,0.00,,---,0.00,VWS V14.01,2013-01-27 16:25:00,
2013-01-27 11:26:00,29.4,15.2,30.52,WNW,300,10.0,14.0,55,0.00,,---,0.00,VWS V14.01,2013-01-27 16:26:00,
2013-01-27 11:30:00,29.2,15.1,30.52,NW,317,7.0,15.0,55,0.00,,---,0.00,VWS V14.01,2013-01-27 16:30:00,
2013-01-27 11:31:00,29.4,15.2,30.52,West,261,6.0,9.0,55,0.00,,---,0.00,VWS V14.01,2013-01-27 16:31:00,
2013-01-27 11:35:00,29.2,15.1,30.52,NW,317,4.0,14.0,55,0.00,,---,0.00,VWS V14.01,2013-01-27 16:35:00,
2013-01-27 11:36:00,29.2,14.6,30.51,WNW,294,7.0,12.0,54,0.00,,---,0.00,VWS V14.01,2013-01-27 16:36:00,
2013-01-27 11:40:00,29.3,15.1,30.51,North,354,7.0,12.0,55,0.00,,---,0.00,VWS V14.01,2013-01-27 16:40:00,
2013-01-27 11:41:00,29.5,15.3,30.51,WNW,282,9.0,11.0,55,0.00,,---,0.00,VWS V14.01,2013-01-27 16:41:00,
2013-01-27 11:45:00,29.8,15.2,30.51,North,5,4.0,11.0,54,0.00,,---,0.00,VWS V14.01,2013-01-27 16:45:00,
2013-01-27 11:46:00,29.9,15.3,30.51,NW,320,0.0,7.0,54,0.00,,---,0.00,VWS V14.01,2013-01-27 16:46:00,
2013-01-27 11:50:00,29.9,14.9,30.51,WNW,297,7.0,14.0,53,0.00,,---,0.00,VWS V14.01,2013-01-27 16:50:00,
2013-01-27 11:51:00,29.8,14.8,30.51,NNW,340,5.0,14.0,53,0.00,,---,0.00,VWS V14.01,2013-01-27 16:51:00,
2013-01-27 11:55:00,29.8,14.3,30.50,NE,42,6.0,14.0,52,0.00,,---,0.00,VWS V14.01,2013-01-27 16:55:00,
2013-01-27 11:56:00,29.7,14.2,30.50,WNW,296,3.0,10.0,52,0.00,,---,0.00,VWS V14.01,2013-01-27 16:56:00,
2013-01-27 12:00:00,29.7,14.2,30.50,North,356,8.0,10.0,52,0.00,,---,0.00,VWS V14.01,2013-01-27 17:00:00,
2013-01-27 12:01:00,29.9,14.9,30.50,North,7,6.0,11.0,53,0.00,,---,0.00,VWS V14.01,2013-01-27 17:01:00,
2013-01-27 12:05:00,30.0,14.5,30.50,NNW,345,3.0,16.0,52,0.00,,---,0.00,VWS V14.01,2013-01-27 17:05:00,
2013-01-27 12:06:00,30.1,14.2,30.50,NW,309,10.0,12.0,51,0.00,,---,0.00,VWS V14.01,2013-01-27 17:06:00,
2013-01-27 12:10:00,30.1,14.2,30.50,NNW,328,5.0,12.0,51,0.00,,---,0.00,VWS V14.01,2013-01-27 17:10:00,
2013-01-27 12:11:00,30.1,14.2,30.50,WNW,294,5.0,11.0,51,0.00,,---,0.00,VWS V14.01,2013-01-27 17:11:00,
2013-01-27 12:15:00,30.2,14.3,30.50,NW,322,10.0,12.0,51,0.00,,---,0.00,VWS V14.01,2013-01-27 17:15:00,
2013-01-27 12:16:00,30.0,13.6,30.50,NNW,348,6.0,13.0,50,0.00,,---,0.00,VWS V14.01,2013-01-27 17:16:00,
2013-01-27 12:20:00,29.9,14.0,30.50,NNW,327,9.0,13.0,51,0.00,,---,0.00,VWS V14.01,2013-01-27 17:20:00,
2013-01-27 12:21:00,29.9,14.4,30.50,NW,314,6.0,9.0,52,0.00,,---,0.00,VWS V14.01,2013-01-27 17:21:00,
2013-01-27 12:25:00,30.4,14.9,30.50,WNW,302,6.0,15.0,52,0.00,,---,0.00,VWS V14.01,2013-01-27 17:25:00,
2013-01-27 12:26:00,30.3,14.4,30.50,NW,309,9.0,13.0,51,0.00,,---,0.00,VWS V14.01,2013-01-27 17:26:00,
2013-01-27 12:30:00,30.2,14.3,30.50,WNW,293,6.0,16.0,51,0.00,,---,0.00,VWS V14.01,2013-01-27 17:30:00,
2013-01-27 12:31:00,30.3,14.4,30.49,WNW,288,10.0,10.0,51,0.00,,---,0.00,VWS V14.01,2013-01-27 17:31:00,
2013-01-27 12:35:00,30.1,14.2,30.49,North,3,5.0,12.0,51,0.00,,---,0.00,VWS V14.01,2013-01-27 17:35:00,
2013-01-27 12:36:00,30.5,15.0,30.49,NNE,20,1.0,9.0,52,0.00,,---,0.00,VWS V14.01,2013-01-27 17:36:00,
2013-01-27 12:40:00,30.8,14.8,30.49,West,271,4.0,9.0,51,0.00,,---,0.00,VWS V14.01,2013-01-27 17:40:00,
2013-01-27 12:41:00,31.0,15.0,30.49,WNW,292,2.0,6.0,51,0.00,,---,0.00,VWS V14.01,2013-01-27 17:41:00,
2013-01-27 12:45:00,30.8,15.3,30.49,WNW,303,3.0,8.0,52,0.00,,---,0.00,VWS V14.01,2013-01-27 17:45:00,
2013-01-27 12:46:00,30.7,15.2,30.49,NW,308,4.0,10.0,52,0.00,,---,0.00,VWS V14.01,2013-01-27 17:46:00,
2013-01-27 12:50:00,30.6,15.1,30.49,NW,313,5.0,12.0,52,0.00,,---,0.00,VWS V14.01,2013-01-27 17:50:00,
2013-01-27 12:51:00,30.6,15.5,30.48,West,279,2.0,5.0,53,0.00,,---,0.00,VWS V14.01,2013-01-27 17:51:00,
2013-01-27 12:55:00,31.3,15.7,30.48,NNW,334,5.0,9.0,52,0.00,,---,0.00,VWS V14.01,2013-01-27 17:55:00,
2013-01-27 12:56:00,31.2,15.2,30.49,WNW,300,5.0,10.0,51,0.00,,---,0.00,VWS V14.01,2013-01-27 17:56:00,
2013-01-27 13:00:00,30.6,14.6,30.49,West,263,7.0,13.0,51,0.00,,---,0.00,VWS V14.01,2013-01-27 18:00:00,
2013-01-27 13:01:00,30.6,15.1,30.49,NW,306,7.0,12.0,52,0.00,,---,0.00,VWS V14.01,2013-01-27 18:01:00,
2013-01-27 13:05:00,30.6,15.1,30.48,NNW,329,11.0,12.0,52,0.00,,---,0.00,VWS V14.01,2013-01-27 18:05:00,
2013-01-27 13:06:00,30.6,14.6,30.48,North,350,4.0,12.0,51,0.00,,---,0.00,VWS V14.01,2013-01-27 18:06:00,
2013-01-27 13:10:00,30.8,15.3,30.48,NW,315,8.0,12.0,52,0.00,,---,0.00,VWS V14.01,2013-01-27 18:10:00,
2013-01-27 13:11:00,31.1,15.5,30.48,North,349,6.0,10.0,52,0.00,,---,0.00,VWS V14.01,2013-01-27 18:11:00,
2013-01-27 13:15:00,31.1,15.5,30.48,NW,325,3.0,10.0,52,0.00,,---,0.00,VWS V14.01,2013-01-27 18:15:00,
2013-01-27 13:16:00,31.2,15.6,30.48,NNW,334,6.0,8.0,52,0.00,,---,0.00,VWS V14.01,2013-01-27 18:16:00,
2013-01-27 13:20:00,31.0,14.6,30.47,NW,304,8.0,12.0,50,0.00,,---,0.00,VWS V14.01,2013-01-27 18:20:00,
2013-01-27 13:21:00,31.0,14.6,30.47,WNW,284,3.0,13.0,50,0.00,,---,0.00,VWS V14.01,2013-01-27 18:21:00,
2013-01-27 13:25:00,31.2,15.2,30.47,NNW,338,5.0,13.0,51,0.00,,---,0.00,VWS V14.01,2013-01-27 18:25:00,
2013-01-27 13:26:00,31.2,14.7,30.47,WNW,293,6.0,13.0,50,0.00,,---,0.00,VWS V14.01,2013-01-27 18:26:00,
2013-01-27 13:30:00,32.5,15.0,30.47,NW,313,6.0,9.0,48,0.00,,---,0.00,VWS V14.01,2013-01-27 18:30:00,
2013-01-27 13:31:00,31.2,15.2,30.48,WNW,297,10.0,12.0,51,0.00,,---,0.00,VWS V14.01,2013-01-27 18:31:00,
2013-01-27 13:35:00,31.2,15.2,30.48,WNW,287,2.0,12.0,51,0.00,,---,0.00,VWS V14.01,2013-01-27 18:35:00,
2013-01-27 13:36:00,31.4,15.4,30.48,NNW,333,4.0,8.0,51,0.00,,---,0.00,VWS V14.01,2013-01-27 18:36:00,
2013-01-27 13:40:00,31.5,15.0,30.48,NW,308,9.0,13.0,50,0.00,,---,0.00,VWS V14.01,2013-01-27 18:40:00,
2013-01-27 13:41:00,31.4,14.9,30.48,NW,307,9.0,13.0,50,0.00,,---,0.00,VWS V14.01,2013-01-27 18:41:00,
2013-01-27 13:45:00,31.2,15.2,30.48,NW,305,4.0,14.0,51,0.00,,---,0.00,VWS V14.01,2013-01-27 18:45:00,
2013-01-27 13:46:00,31.3,15.3,30.48,WNW,293,5.0,7.0,51,0.00,,---,0.00,VWS V14.01,2013-01-27 18:46:00,
2013-01-27 13:50:00,31.6,15.1,30.47,WNW,298,2.0,9.0,50,0.00,,---,0.00,VWS V14.01,2013-01-27 18:50:00,
2013-01-27 13:51:00,31.7,15.2,30.47,NNW,328,5.0,8.0,50,0.00,,---,0.00,VWS V14.01,2013-01-27 18:51:00,
2013-01-27 13:55:00,31.8,15.3,30.48,NNW,345,10.0,13.0,50,0.00,,---,0.00,VWS V14.01,2013-01-27 18:55:00,
2013-01-27 13:56:00,31.9,15.4,30.48,NW,316,1.0,10.0,50,0.00,,---,0.00,VWS V14.01,2013-01-27 18:56:00,
2013-01-27 14:00:00,31.9,14.9,30.48,NW,309,5.0,11.0,49,0.00,,---,0.00,VWS V14.01,2013-01-27 19:00:00,
2013-01-27 14:01:00,31.8,14.8,30.47,WNW,296,3.0,7.0,49,0.00,,---,0.00,VWS V14.01,2013-01-27 19:01:00,
2013-01-27 14:05:00,32.0,14.6,30.47,NW,325,5.0,14.0,48,0.00,,---,0.00,VWS V14.01,2013-01-27 19:05:00,
2013-01-27 14:06:00,32.0,14.6,30.47,NW,309,5.0,11.0,48,0.00,,---,0.00,VWS V14.01,2013-01-27 19:06:00,
2013-01-27 14:10:00,32.1,15.1,30.47,WNW,302,2.0,11.0,49,0.00,,---,0.00,VWS V14.01,2013-01-27 19:10:00,
2013-01-27 14:11:00,32.2,15.2,30.47,NNW,329,2.0,7.0,49,0.00,,---,0.00,VWS V14.01,2013-01-27 19:11:00,
2013-01-27 14:15:00,32.4,15.4,30.47,WNW,300,10.0,11.0,49,0.00,,---,0.00,VWS V14.01,2013-01-27 19:15:00,
2013-01-27 14:16:00,32.3,14.8,30.47,North,7,3.0,14.0,48,0.00,,---,0.00,VWS V14.01,2013-01-27 19:16:00,
2013-01-27 14:20:00,32.4,14.9,30.47,NW,325,8.0,14.0,48,0.00,,---,0.00,VWS V14.01,2013-01-27 19:20:00,
2013-01-27 14:21:00,32.4,14.9,30.47,WNW,303,8.0,12.0,48,0.00,,---,0.00,VWS V14.01,2013-01-27 19:21:00,
2013-01-27 14:25:00,32.4,14.4,30.47,NW,313,3.0,12.0,47,0.00,,---,0.00,VWS V14.01,2013-01-27 19:25:00,
2013-01-27 14:26:00,32.3,14.8,30.47,North,5,6.0,6.0,48,0.00,,---,0.00,VWS V14.01,2013-01-27 19:26:00,
2013-01-27 14:30:00,32.5,15.0,30.47,NW,313,6.0,9.0,48,0.00,,---,0.00,VWS V14.01,2013-01-27 19:30:00,
2013-01-27 14:31:00,32.5,15.0,30.47,NW,321,5.0,9.0,48,0.00,,---,0.00,VWS V14.01,2013-01-27 19:31:00,
2013-01-27 14:35:00,32.6,15.6,30.47,WNW,288,8.0,9.0,49,0.00,,---,0.00,VWS V14.01,2013-01-27 19:35:00,
2013-01-27 14:36:00,32.6,16.0,30.47,NW,308,4.0,8.0,50,0.00,,---,0.00,VWS V14.01,2013-01-27 19:36:00,
2013-01-27 14:40:00,32.8,16.2,30.47,West,266,4.0,12.0,50,0.00,,---,0.00,VWS V14.01,2013-01-27 19:40:00,
2013-01-27 14:41:00,32.8,16.2,30.47,WNW,300,3.0,8.0,50,0.00,,---,0.00,VWS V14.01,2013-01-27 19:41:00,
2013-01-27 14:45:00,32.9,15.9,30.47,NNW,331,3.0,10.0,49,0.00,,---,0.00,VWS V14.01,2013-01-27 19:45:00,
2013-01-27 14:46:00,32.9,15.9,30.47,WNW,300,3.0,6.0,49,0.00,,---,0.00,VWS V14.01,2013-01-27 19:46:00,
2013-01-27 14:50:00,33.1,16.0,30.46,WSW,257,2.0,14.0,49,0.00,,---,0.00,VWS V14.01,2013-01-27 19:50:00,
2013-01-27 14:51:00,33.0,15.9,30.47,NW,323,1.0,8.0,49,0.00,,---,0.00,VWS V14.01,2013-01-27 19:51:00,
2013-01-27 14:55:00,33.3,15.7,30.46,WNW,288,8.0,11.0,48,0.00,,---,0.00,VWS V14.01,2013-01-27 19:55:00,
2013-01-27 14:56:00,33.3,15.7,30.46,WNW,291,6.0,11.0,48,0.00,,---,0.00,VWS V14.01,2013-01-27 19:56:00,
2013-01-27 15:00:00,33.1,15.1,30.46,WNW,286,5.0,11.0,47,0.00,,---,0.00,VWS V14.01,2013-01-27 20:00:00,
2013-01-27 15:01:00,33.2,15.2,30.46,NW,318,0.0,7.0,47,0.00,,---,0.00,VWS V14.01,2013-01-27 20:01:00,
2013-01-27 15:05:00,33.2,15.2,30.46,NW,321,5.0,10.0,47,0.00,,---,0.00,VWS V14.01,2013-01-27 20:05:00,
2013-01-27 15:06:00,33.2,15.2,30.46,WNW,298,10.0,11.0,47,0.00,,---,0.00,VWS V14.01,2013-01-27 20:06:00,
2013-01-27 15:10:00,33.2,15.6,30.46,NW,320,3.0,11.0,48,0.00,,---,0.00,VWS V14.01,2013-01-27 20:10:00,
2013-01-27 15:11:00,33.2,15.6,30.46,WNW,292,12.0,12.0,48,0.00,,---,0.00,VWS V14.01,2013-01-27 20:11:00,
2013-01-27 15:15:00,33.4,15.8,30.47,NW,318,4.0,12.0,48,0.00,,---,0.00,VWS V14.01,2013-01-27 20:15:00,
2013-01-27 15:16:00,33.4,15.8,30.47,NW,318,4.0,4.0,48,0.00,,---,0.00,VWS V14.01,2013-01-27 20:16:00,
2013-01-27 15:20:00,33.4,15.4,30.47,WNW,286,3.0,8.0,47,0.00,,---,0.00,VWS V14.01,2013-01-27 20:20:00,
2013-01-27 15:21:00,33.4,15.4,30.47,WNW,298,7.0,9.0,47,0.00,,---,0.00,VWS V14.01,2013-01-27 20:21:00,
2013-01-27 15:25:00,33.4,15.8,30.47,NW,306,3.0,9.0,48,0.00,,---,0.00,VWS V14.01,2013-01-27 20:25:00,
2013-01-27 15:26:00,33.4,15.8,30.47,WNW,292,8.0,9.0,48,0.00,,---,0.00,VWS V14.01,2013-01-27 20:26:00,
2013-01-27 15:30:00,33.3,15.3,30.47,WNW,300,5.0,10.0,47,0.00,,---,0.00,VWS V14.01,2013-01-27 20:30:00,
2013-01-27 15:31:00,33.3,15.7,30.47,WNW,291,8.0,9.0,48,0.00,,---,0.00,VWS V14.01,2013-01-27 20:31:00,
2013-01-27 15:35:00,33.4,15.8,30.47,WNW,288,3.0,9.0,48,0.00,,---,0.00,VWS V14.01,2013-01-27 20:35:00,
2013-01-27 15:36:00,33.4,15.8,30.47,WNW,302,4.0,7.0,48,0.00,,---,0.00,VWS V14.01,2013-01-27 20:36:00,
2013-01-27 15:40:00,33.5,16.4,30.47,West,260,5.0,11.0,49,0.00,,---,0.00,VWS V14.01,2013-01-27 20:40:00,
2013-01-27 15:41:00,33.5,15.9,30.47,West,265,6.0,10.0,48,0.00,,---,0.00,VWS V14.01,2013-01-27 20:41:00,
2013-01-27 15:45:00,33.4,15.8,30.47,WNW,300,5.0,11.0,48,0.00,,---,0.00,VWS V14.01,2013-01-27 20:45:00,
2013-01-27 15:46:00,33.3,15.7,30.47,West,267,2.0,8.0,48,0.00,,---,0.00,VWS V14.01,2013-01-27 20:46:00,
2013-01-27 15:50:00,33.3,15.7,30.47,NW,319,3.0,10.0,48,0.00,,---,0.00,VWS V14.01,2013-01-27 20:50:00,
2013-01-27 15:51:00,33.3,15.7,30.47,WNW,290,3.0,7.0,48,0.00,,---,0.00,VWS V14.01,2013-01-27 20:51:00,
2013-01-27 15:55:00,33.3,15.7,30.48,NW,305,4.0,8.0,48,0.00,,---,0.00,VWS V14.01,2013-01-27 20:55:00,
2013-01-27 15:56:00,33.3,15.7,30.48,WNW,286,5.0,6.0,48,0.00,,---,0.00,VWS V14.01,2013-01-27 20:56:00,
2013-01-27 16:00:00,33.3,16.2,30.48,WNW,287,3.0,10.0,49,0.00,,---,0.00,VWS V14.01,2013-01-27 21:00:00,
2013-01-27 16:01:00,33.3,16.2,30.48,West,268,2.0,7.0,49,0.00,,---,0.00,VWS V14.01,2013-01-27 21:01:00,
2013-01-27 16:05:00,33.1,16.0,30.48,WNW,288,8.0,8.0,49,0.00,,---,0.00,VWS V14.01,2013-01-27 21:05:00,
2013-01-27 16:06:00,33.1,16.0,30.48,WNW,286,5.0,9.0,49,0.00,,---,0.00,VWS V14.01,2013-01-27 21:06:00,
2013-01-27 16:10:00,33.0,15.9,30.48,NNW,334,6.0,12.0,49,0.00,,---,0.00,VWS V14.01,2013-01-27 21:10:00,
2013-01-27 16:11:00,33.0,15.5,30.48,WNW,301,5.0,12.0,48,0.00,,---,0.00,VWS V14.01,2013-01-27 21:11:00,
2013-01-27 16:15:00,32.8,15.8,30.48,West,280,4.0,12.0,49,0.00,,---,0.00,VWS V14.01,2013-01-27 21:15:00,
2013-01-27 16:16:00,32.8,15.8,30.48,West,275,3.0,9.0,49,0.00,,---,0.00,VWS V14.01,2013-01-27 21:16:00,
2013-01-27 16:20:00,32.7,15.7,30.48,WNW,301,2.0,9.0,49,0.00,,---,0.00,VWS V14.01,2013-01-27 21:20:00,
2013-01-27 16:21:00,32.6,15.6,30.48,West,280,5.0,8.0,49,0.00,,---,0.00,VWS V14.01,2013-01-27 21:21:00,
2013-01-27 16:25:00,32.4,15.4,30.48,West,273,3.0,8.0,49,0.00,,---,0.00,VWS V14.01,2013-01-27 21:25:00,
2013-01-27 16:26:00,32.4,15.9,30.48,West,277,6.0,6.0,50,0.00,,---,0.00,VWS V14.01,2013-01-27 21:26:00,
2013-01-27 16:30:00,32.3,15.8,30.48,NW,319,7.0,7.0,50,0.00,,---,0.00,VWS V14.01,2013-01-27 21:30:00,
2013-01-27 16:31:00,32.3,15.8,30.48,West,275,4.0,9.0,50,0.00,,---,0.00,VWS V14.01,2013-01-27 21:31:00,
2013-01-27 16:35:00,32.2,15.7,30.47,WNW,295,4.0,9.0,50,0.00,,---,0.00,VWS V14.01,2013-01-27 21:35:00,
2013-01-27 16:36:00,32.2,15.7,30.48,NW,323,6.0,10.0,50,0.00,,---,0.00,VWS V14.01,2013-01-27 21:36:00,
2013-01-27 16:40:00,32.0,15.9,30.48,WNW,295,7.0,10.0,51,0.00,,---,0.00,VWS V14.01,2013-01-27 21:40:00,
2013-01-27 16:41:00,32.0,15.9,30.48,NW,322,3.0,7.0,51,0.00,,---,0.00,VWS V14.01,2013-01-27 21:41:00,
2013-01-27 16:45:00,32.0,15.9,30.48,WNW,294,5.0,7.0,51,0.00,,---,0.00,VWS V14.01,2013-01-27 21:45:00,
2013-01-27 16:46:00,32.0,15.9,30.48,WNW,296,3.0,5.0,51,0.00,,---,0.00,VWS V14.01,2013-01-27 21:46:00,
2013-01-27 16:50:00,32.0,15.9,30.48,WNW,283,2.0,9.0,51,0.00,,---,0.00,VWS V14.01,2013-01-27 21:50:00,
2013-01-27 16:51:00,32.0,15.9,30.48,West,267,2.0,4.0,51,0.00,,---,0.00,VWS V14.01,2013-01-27 21:51:00,
2013-01-27 16:55:00,31.9,15.8,30.47,WNW,292,3.0,5.0,51,0.00,,---,0.00,VWS V14.01,2013-01-27 21:55:00,
2013-01-27 16:56:00,31.9,16.3,30.47,WNW,291,0.0,3.0,52,0.00,,---,0.00,VWS V14.01,2013-01-27 21:56:00,
2013-01-27 17:00:00,31.6,16.0,30.47,West,275,3.0,4.0,52,0.00,,---,0.00,VWS V14.01,2013-01-27 22:00:00,
2013-01-27 17:01:00,31.5,15.9,30.47,WNW,282,3.0,5.0,52,0.00,,---,0.00,VWS V14.01,2013-01-27 22:01:00,
2013-01-27 17:05:00,31.4,16.3,30.47,WNW,301,4.0,7.0,53,0.00,,---,0.00,VWS V14.01,2013-01-27 22:05:00,
2013-01-27 17:10:00,31.2,16.1,30.48,WNW,301,0.0,4.0,53,0.00,,---,0.00,VWS V14.01,2013-01-27 22:10:00,
2013-01-27 17:15:00,31.0,16.3,30.48,WNW,296,2.0,4.0,54,0.00,,---,0.00,VWS V14.01,2013-01-27 22:15:00,
2013-01-27 17:20:00,30.7,16.5,30.49,WNW,296,1.0,2.0,55,0.00,,---,0.00,VWS V14.01,2013-01-27 22:20:00,
2013-01-27 17:25:00,30.6,16.8,30.49,WNW,296,1.0,5.0,56,0.00,,---,0.00,VWS V14.01,2013-01-27 22:25:00,
2013-01-27 17:30:00,30.6,16.8,30.49,NW,304,4.0,6.0,56,0.00,,---,0.00,VWS V14.01,2013-01-27 22:30:00,
2013-01-27 17:35:00,30.5,16.7,30.49,WNW,292,1.0,4.0,56,0.00,,---,0.00,VWS V14.01,2013-01-27 22:35:00,
2013-01-27 17:40:00,30.4,16.6,30.50,WNW,282,1.0,4.0,56,0.00,,---,0.00,VWS V14.01,2013-01-27 22:40:00,
2013-01-27 17:45:00,30.2,16.8,30.50,WNW,299,2.0,4.0,57,0.00,,---,0.00,VWS V14.01,2013-01-27 22:45:00,
2013-01-27 17:50:00,30.1,16.7,30.50,WNW,295,1.0,3.0,57,0.00,,---,0.00,VWS V14.01,2013-01-27 22:50:00,
2013-01-27 17:55:00,29.9,16.5,30.50,WNW,295,0.0,1.0,57,0.00,,---,0.00,VWS V14.01,2013-01-27 22:55:00,
2013-01-27 18:00:00,29.7,16.4,30.50,WNW,294,2.0,3.0,57,0.00,,---,0.00,VWS V14.01,2013-01-27 23:00:00,
2013-01-27 18:05:00,29.5,16.6,30.50,WNW,294,0.0,0.0,58,0.00,,---,0.00,VWS V14.01,2013-01-27 23:05:00,
2013-01-27 18:10:00,29.2,16.7,30.50,WNW,294,0.0,0.0,59,0.00,,---,0.00,VWS V14.01,2013-01-27 23:10:00,
2013-01-27 18:15:00,28.9,16.0,30.50,WNW,294,0.0,0.0,58,0.00,,---,0.00,VWS V14.01,2013-01-27 23:15:00,
2013-01-27 18:20:00,28.6,16.1,30.50,WNW,294,0.0,0.0,59,0.00,,---,0.00,VWS V14.01,2013-01-27 23:20:00,
2013-01-27 18:25:00,28.3,16.2,30.50,WNW,294,0.0,1.0,60,0.00,,---,0.00,VWS V14.01,2013-01-27 23:25:00,
2013-01-27 18:30:00,28.3,16.2,30.50,WNW,294,0.0,2.0,60,0.00,,---,0.00,VWS V14.01,2013-01-27 23:30:00,
2013-01-27 18:35:00,28.0,16.3,30.50,WNW,294,1.0,2.0,61,0.00,,---,0.00,VWS V14.01,2013-01-27 23:35:00,
2013-01-27 18:40:00,27.9,16.2,30.50,WNW,294,1.0,3.0,61,0.00,,---,0.00,VWS V14.01,2013-01-27 23:40:00,
2013-01-27 18:45:00,28.0,16.3,30.50,WNW,294,0.0,3.0,61,0.00,,---,0.00,VWS V14.01,2013-01-27 23:45:00,
2013-01-27 18:50:00,28.0,15.9,30.50,WNW,294,2.0,4.0,60,0.00,,---,0.00,VWS V14.01,2013-01-27 23:50:00,
2013-01-27 18:55:00,28.0,16.7,30.50,WNW,294,1.0,5.0,62,0.00,,---,0.00,VWS V14.01,2013-01-27 23:55:00,
2013-01-27 19:00:00,28.1,16.0,30.50,WNW,294,4.0,4.0,60,0.00,,---,0.00,VWS V14.01,2013-01-28 00:00:00,
2013-01-27 19:05:00,28.1,16.0,30.50,WNW,294,3.0,4.0,60,0.00,,---,0.00,VWS V14.01,2013-01-28 00:05:00,
2013-01-27 19:10:00,28.2,16.1,30.50,WNW,294,2.0,3.0,60,0.00,,---,0.00,VWS V14.01,2013-01-28 00:10:00,
2013-01-27 19:15:00,28.1,16.0,30.50,WNW,296,2.0,3.0,60,0.00,,---,0.00,VWS V14.01,2013-01-28 00:15:00,
2013-01-27 19:20:00,28.1,16.0,30.50,WNW,296,0.0,2.0,60,0.00,,---,0.00,VWS V14.01,2013-01-28 00:20:00,
2013-01-27 19:25:00,27.9,15.8,30.51,WNW,296,1.0,5.0,60,0.00,,---,0.00,VWS V14.01,2013-01-28 00:25:00,
2013-01-27 19:30:00,27.9,15.8,30.51,WNW,296,1.0,3.0,60,0.00,,---,0.00,VWS V14.01,2013-01-28 00:30:00,
2013-01-27 19:35:00,27.8,15.7,30.50,WNW,296,2.0,4.0,60,0.00,,---,0.00,VWS V14.01,2013-01-28 00:35:00,
2013-01-27 19:40:00,27.8,16.1,30.50,WNW,296,0.0,3.0,61,0.00,,---,0.00,VWS V14.01,2013-01-28 00:40:00,
2013-01-27 19:45:00,27.3,16.4,30.50,WNW,296,0.0,0.0,63,0.00,,---,0.00,VWS V14.01,2013-01-28 00:45:00,
2013-01-27 19:50:00,27.3,16.4,30.50,WNW,296,0.0,0.0,63,0.00,,---,0.00,VWS V14.01,2013-01-28 00:50:00,
2013-01-27 19:55:00,26.7,16.2,30.50,WNW,296,0.0,0.0,64,0.00,,---,0.00,VWS V14.01,2013-01-28 00:55:00,
2013-01-27 20:00:00,26.0,15.9,30.50,WNW,296,0.0,0.0,65,0.00,,---,0.00,VWS V14.01,2013-01-28 01:00:00,
2013-01-27 20:05:00,25.6,15.8,30.50,WNW,296,0.0,0.0,66,0.00,,---,0.00,VWS V14.01,2013-01-28 01:05:00,
2013-01-27 20:10:00,25.3,15.9,30.50,WNW,296,0.0,0.0,67,0.00,,---,0.00,VWS V14.01,2013-01-28 01:10:00,
2013-01-27 20:15:00,25.2,15.8,30.50,WNW,296,0.0,0.0,67,0.00,,---,0.00,VWS V14.01,2013-01-28 01:15:00,
2013-01-27 20:20:00,25.4,16.3,30.49,WNW,296,0.0,0.0,68,0.00,,---,0.00,VWS V14.01,2013-01-28 01:20:00,
2013-01-27 20:25:00,25.2,16.1,30.49,WNW,296,0.0,0.0,68,0.00,,---,0.00,VWS V14.01,2013-01-28 01:25:00,
2013-01-27 20:30:00,25.2,15.8,30.49,WNW,296,0.0,0.0,67,0.00,,---,0.00,VWS V14.01,2013-01-28 01:30:00,
2013-01-27 20:35:00,25.1,16.0,30.49,WNW,296,0.0,0.0,68,0.00,,---,0.00,VWS V14.01,2013-01-28 01:35:00,
2013-01-27 20:40:00,25.3,16.6,30.49,WNW,296,0.0,0.0,69,0.00,,---,0.00,VWS V14.01,2013-01-28 01:40:00,
2013-01-27 20:45:00,25.0,16.3,30.49,WNW,296,0.0,0.0,69,0.00,,---,0.00,VWS V14.01,2013-01-28 01:45:00,
2013-01-27 20:50:00,24.9,16.5,30.50,WNW,296,0.0,0.0,70,0.00,,---,0.00,VWS V14.01,2013-01-28 01:50:00,
2013-01-27 20:55:00,24.5,16.1,30.50,WNW,296,0.0,0.0,70,0.00,,---,0.00,VWS V14.01,2013-01-28 01:55:00,
2013-01-27 21:00:00,24.3,16.3,30.50,WNW,296,0.0,0.0,71,0.00,,---,0.00,VWS V14.01,2013-01-28 02:00:00,
2013-01-27 21:05:00,24.0,16.3,30.50,WNW,296,0.0,0.0,72,0.00,,---,0.00,VWS V14.01,2013-01-28 02:05:00,
2013-01-27 21:10:00,23.8,16.4,30.51,WNW,296,2.0,2.0,73,0.00,,---,0.00,VWS V14.01,2013-01-28 02:10:00,
2013-01-27 21:15:00,23.9,16.5,30.51,WNW,296,0.0,0.0,73,0.00,,---,0.00,VWS V14.01,2013-01-28 02:15:00,
2013-01-27 21:20:00,23.7,16.3,30.50,WNW,296,0.0,0.0,73,0.00,,---,0.00,VWS V14.01,2013-01-28 02:20:00,
2013-01-27 21:25:00,23.5,16.1,30.50,WNW,296,0.0,0.0,73,0.00,,---,0.00,VWS V14.01,2013-01-28 02:25:00,
2013-01-27 21:30:00,23.5,16.1,30.51,WNW,296,0.0,0.0,73,0.00,,---,0.00,VWS V14.01,2013-01-28 02:30:00,
2013-01-27 21:35:00,23.1,15.8,30.51,WNW,296,0.0,0.0,73,0.00,,---,0.00,VWS V14.01,2013-01-28 02:35:00,
2013-01-27 21:40:00,23.1,16.1,30.51,WNW,296,1.0,1.0,74,0.00,,---,0.00,VWS V14.01,2013-01-28 02:40:00,
2013-01-27 21:45:00,22.8,15.8,30.51,WNW,296,0.0,0.0,74,0.00,,---,0.00,VWS V14.01,2013-01-28 02:45:00,
2013-01-27 21:50:00,22.4,15.7,30.51,WNW,296,0.0,0.0,75,0.00,,---,0.00,VWS V14.01,2013-01-28 02:50:00,
2013-01-27 21:55:00,22.1,15.7,30.51,WNW,296,0.0,0.0,76,0.00,,---,0.00,VWS V14.01,2013-01-28 02:55:00,
2013-01-27 22:00:00,21.8,15.7,30.50,WNW,296,0.0,0.0,77,0.00,,---,0.00,VWS V14.01,2013-01-28 03:00:00,
2013-01-27 22:05:00,21.6,15.5,30.50,WNW,296,0.0,0.0,77,0.00,,---,0.00,VWS V14.01,2013-01-28 03:05:00,
2013-01-27 22:10:00,21.8,15.7,30.50,WNW,296,0.0,0.0,77,0.00,,---,0.00,VWS V14.01,2013-01-28 03:10:00,
2013-01-27 22:15:00,21.9,15.5,30.49,WNW,296,0.0,0.0,76,0.00,,---,0.00,VWS V14.01,2013-01-28 03:15:00,
2013-01-27 22:20:00,22.2,16.1,30.50,WNW,296,0.0,0.0,77,0.00,,---,0.00,VWS V14.01,2013-01-28 03:20:00,
2013-01-27 22:25:00,22.0,15.6,30.49,WNW,296,0.0,0.0,76,0.00,,---,0.00,VWS V14.01,2013-01-28 03:25:00,
2013-01-27 22:30:00,21.8,15.4,30.50,WNW,296,0.0,0.0,76,0.00,,---,0.00,VWS V14.01,2013-01-28 03:30:00,
2013-01-27 22:35:00,21.7,15.6,30.50,WNW,296,0.0,0.0,77,0.00,,---,0.00,VWS V14.01,2013-01-28 03:35:00,
2013-01-27 22:40:00,21.5,15.4,30.50,WNW,296,0.0,0.0,77,0.00,,---,0.00,VWS V14.01,2013-01-28 03:40:00,
2013-01-27 22:45:00,21.2,15.4,30.50,WNW,296,0.0,0.0,78,0.00,,---,0.00,VWS V14.01,2013-01-28 03:45:00,
2013-01-27 22:50:00,21.2,15.7,30.49,WNW,296,0.0,0.0,79,0.00,,---,0.00,VWS V14.01,2013-01-28 03:50:00,
2013-01-27 22:55:00,21.6,16.1,30.49,WNW,296,0.0,0.0,79,0.00,,---,0.00,VWS V14.01,2013-01-28 03:55:00,
2013-01-27 23:00:00,21.6,16.1,30.48,WNW,296,0.0,0.0,79,0.00,,---,0.00,VWS V14.01,2013-01-28 04:00:00,
2013-01-27 23:05:00,21.5,16.0,30.48,WNW,296,0.0,0.0,79,0.00,,---,0.00,VWS V14.01,2013-01-28 04:05:00,
2013-01-27 23:10:00,21.4,15.9,30.48,WNW,296,0.0,0.0,79,0.00,,---,0.00,VWS V14.01,2013-01-28 04:10:00,
2013-01-27 23:15:00,21.5,16.3,30.49,WNW,296,0.0,0.0,80,0.00,,---,0.00,VWS V14.01,2013-01-28 04:15:00,
2013-01-27 23:20:00,21.2,16.0,30.49,WNW,296,0.0,0.0,80,0.00,,---,0.00,VWS V14.01,2013-01-28 04:20:00,
2013-01-27 23:25:00,20.8,15.6,30.49,WNW,296,0.0,0.0,80,0.00,,---,0.00,VWS V14.01,2013-01-28 04:25:00,
2013-01-27 23:30:00,20.4,15.2,30.49,WNW,296,0.0,0.0,80,0.00,,---,0.00,VWS V14.01,2013-01-28 04:30:00,
2013-01-27 23:35:00,20.2,15.0,30.49,WNW,296,0.0,0.0,80,0.00,,---,0.00,VWS V14.01,2013-01-28 04:35:00,
2013-01-27 23:40:00,19.9,14.7,30.49,WNW,296,0.0,0.0,80,0.00,,---,0.00,VWS V14.01,2013-01-28 04:40:00,
2013-01-27 23:45:00,19.8,14.9,30.49,WNW,296,0.0,0.0,81,0.00,,---,0.00,VWS V14.01,2013-01-28 04:45:00,
2013-01-27 23:50:00,19.7,14.8,30.49,WNW,296,0.0,0.0,81,0.00,,---,0.00,VWS V14.01,2013-01-28 04:50:00,
2013-01-27 23:55:00,19.8,14.9,30.49,WNW,296,1.0,1.0,81,0.00,,---,0.00,VWS V14.01,2013-01-28 04:55:00,